TimeEST,TemperatureF,Dew PointF,Humidity,Sea Level PressureIn,VisibilityMPH,Wind Direction,Wind SpeedMPH,Gust SpeedMPH,PrecipitationIn,Events,Conditions,WindDirDegrees,DateUTC
12:51 AM,48.9,27.0,43,30.11,10.0,SE,10.4,23.0,N/A,,Mostly Cloudy,140,2012-02-16 05:51:00
1:51 AM,48.0,28.0,46,30.13,10.0,ESE,12.7,-,N/A,,Overcast,120,2012-02-16 06:51:00
2:51 AM,48.0,28.0,46,30.11,10.0,SE,11.5,-,N/A,,Overcast,130,2012-02-16 07:51:00
3:51 AM,46.9,30.9,54,30.14,10.0,SSW,11.5,-,0.00,Rain,Light Rain,210,2012-02-16 08:51:00
4:51 AM,44.1,37.0,76,30.12,10.0,SE,5.8,-,0.01,Rain,Light Rain,140,2012-02-16 09:51:00
5:51 AM,44.6,37.4,76,30.09,10.0,SE,8.1,-,N/A,,Overcast,140,2012-02-16 10:51:00
6:51 AM,44.1,36.0,73,30.06,10.0,SE,8.1,-,0.01,,Overcast,140,2012-02-16 11:51:00
7:51 AM,44.1,37.9,79,30.07,5.0,SSE,8.1,-,0.01,Rain,Light Rain,150,2012-02-16 12:51:00
8:51 AM,43.0,39.0,86,30.06,5.0,SSE,10.4,-,0.10,Rain,Rain,150,2012-02-16 13:51:00
9:51 AM,44.1,39.9,85,30.05,6.0,SE,8.1,-,0.07,Rain,Light Rain,140,2012-02-16 14:51:00
10:32 AM,44.6,41.0,87,30.04,6.0,SSE,8.1,-,0.01,Rain,Light Rain,160,2012-02-16 15:32:00
10:51 AM,45.0,42.1,90,30.05,5.0,SSE,8.1,-,0.02,Rain,Light Rain,160,2012-02-16 15:51:00
11:06 AM,44.6,42.8,93,30.04,2.0,South,5.8,-,0.01,Rain,Light Rain,170,2012-02-16 16:06:00
11:24 AM,44.6,42.8,93,30.04,4.0,South,6.9,-,0.02,Rain,Light Rain,170,2012-02-16 16:24:00
11:33 AM,46.4,42.8,87,30.04,2.5,South,3.5,-,0.02,Rain,Light Rain,180,2012-02-16 16:33:00
11:41 AM,46.4,42.8,87,30.03,3.0,SSE,4.6,-,0.03,Rain,Light Rain,160,2012-02-16 16:41:00
11:51 AM,46.0,43.0,89,30.04,5.0,SSE,3.5,-,0.03,Rain,Light Rain,160,2012-02-16 16:51:00
12:15 PM,46.4,44.6,93,30.04,2.0,South,4.6,-,0.03,Rain,Rain,190,2012-02-16 17:15:00
12:31 PM,46.4,44.6,93,30.03,3.0,SSW,4.6,-,0.06,Rain,Light Rain,210,2012-02-16 17:31:00
12:51 PM,46.9,45.0,93,30.04,4.0,SW,6.9,-,0.08,Rain,Light Rain,220,2012-02-16 17:51:00
1:25 PM,48.2,44.6,87,30.00,10.0,SW,8.1,17.3,0.01,Rain,Light Rain,230,2012-02-16 18:25:00
1:48 PM,48.2,44.6,87,30.00,10.0,WSW,9.2,-,0.01,,Overcast,240,2012-02-16 18:48:00
1:51 PM,48.0,45.0,89,30.01,10.0,WSW,10.4,-,0.01,Rain,Light Rain,240,2012-02-16 18:51:00
2:24 PM,46.4,44.6,93,30.01,4.0,West,8.1,-,0.00,,Overcast,260,2012-02-16 19:24:00
2:34 PM,46.4,44.6,93,30.01,2.0,West,8.1,-,0.00,,Overcast,260,2012-02-16 19:34:00
2:51 PM,46.9,45.0,93,30.02,2.0,WSW,9.2,17.3,0.00,,Overcast,250,2012-02-16 19:51:00
3:12 PM,48.2,44.6,87,30.00,3.0,WSW,12.7,-,N/A,,Overcast,240,2012-02-16 20:12:00
3:30 PM,48.2,46.4,93,30.01,9.0,WSW,9.2,-,N/A,,Overcast,250,2012-02-16 20:30:00
3:51 PM,48.0,46.0,93,30.01,10.0,West,6.9,-,N/A,,Overcast,260,2012-02-16 20:51:00
4:47 PM,48.2,44.6,87,30.02,10.0,West,4.6,-,N/A,,Overcast,270,2012-02-16 21:47:00
4:51 PM,48.0,45.0,89,30.04,10.0,West,6.9,-,N/A,,Overcast,270,2012-02-16 21:51:00
5:01 PM,48.2,44.6,87,30.02,10.0,West,4.6,-,N/A,,Overcast,280,2012-02-16 22:01:00
5:43 PM,48.2,44.6,87,30.03,3.0,WNW,4.6,-,0.01,Rain,Light Rain,300,2012-02-16 22:43:00
5:49 PM,48.2,44.6,87,30.03,3.0,WNW,5.8,-,0.02,Rain,Light Rain,300,2012-02-16 22:49:00
5:51 PM,46.9,45.0,93,30.04,3.0,WNW,4.6,-,0.02,Rain,Light Rain,290,2012-02-16 22:51:00
5:59 PM,46.4,44.6,93,30.03,7.0,WNW,4.6,-,0.00,Rain,Light Rain,290,2012-02-16 22:59:00
6:12 PM,46.4,44.6,93,30.03,10.0,West,4.6,-,0.00,,Overcast,280,2012-02-16 23:12:00
6:44 PM,46.4,44.6,93,30.04,6.0,NW,5.8,-,0.00,Rain,Light Rain,320,2012-02-16 23:44:00
6:51 PM,46.9,45.0,93,30.06,7.0,NNW,8.1,-,0.01,Rain,Light Rain,330,2012-02-16 23:51:00
7:51 PM,46.0,43.0,89,30.08,10.0,NW,6.9,-,0.00,,Overcast,310,2012-02-17 00:51:00
8:17 PM,44.6,42.8,93,30.06,10.0,West,9.2,-,N/A,,Overcast,280,2012-02-17 01:17:00
8:51 PM,44.6,41.0,87,30.06,10.0,WNW,10.4,-,N/A,,Overcast,290,2012-02-17 01:51:00
9:51 PM,44.1,41.0,89,30.10,10.0,WNW,8.1,-,N/A,,Overcast,290,2012-02-17 02:51:00
10:28 PM,44.6,41.0,87,30.07,10.0,West,6.9,-,N/A,,Overcast,280,2012-02-17 03:28:00
10:51 PM,44.1,41.0,89,30.09,10.0,West,8.1,-,N/A,,Overcast,280,2012-02-17 03:51:00
11:15 PM,44.6,41.0,87,30.07,10.0,WNW,5.8,-,N/A,,Overcast,290,2012-02-17 04:15:00
11:51 PM,44.1,39.9,85,30.08,10.0,NW,6.9,-,N/A,,Overcast,320,2012-02-17 04:51:00